This is the latest recevied weather packets stored in our database for station/object 7L2IWN-13. If no packets are shown the sender has not sent any weather packets the latest 10 day(s).
| Time | Temp. | Humidity | Pressure | Rain* | Wind** | Luminosity | Snow |
|---|---|---|---|---|---|---|---|
| 1777253660 | 12.78° C | 99% | 1005.1 hPa | 0 mm | - | - | - |
| 1777252221 | 12.22° C | 99% | 1005.3 hPa | 0.25 mm | - | - | - |
| 1777251501 | 12.22° C | 99% | 1005.4 hPa | 1.02 mm | - | - | - |
| 1777250781 | 12.22° C | 99% | 1005.3 hPa | 1.78 mm | - | - | - |
| 1777250064 | 12.22° C | 99% | 1005.2 hPa | 2.79 mm | - | - | - |
| 1777249342 | 12.22° C | 99% | 1006 hPa | 3.56 mm | - | - | - |
| 1777248622 | 12.22° C | 99% | 1006.1 hPa | 3.81 mm | - | - | - |
| 1777247901 | 12.22° C | 99% | 1006.7 hPa | 3.81 mm | - | - | - |
| 1777246462 | 11.67° C | 99% | 1007 hPa | 3.56 mm | - | - | - |
| 1777245741 | 11.67° C | 99% | 1007 hPa | 3.3 mm | - | - | - |
| 1777245023 | 11.67° C | 99% | 1007.4 hPa | 3.81 mm | - | - | - |
| 1777244302 | 11.67° C | 99% | 1007.6 hPa | 4.32 mm | - | - | - |
| 1777243582 | 11.67° C | 99% | 1007.7 hPa | 4.32 mm | - | - | - |
| 1777242861 | 11.67° C | 99% | 1007.9 hPa | 4.32 mm | - | - | - |
| 1777242142 | 11.67° C | 99% | 1007.9 hPa | 5.08 mm | - | - | - |
| 1777241422 | 11.67° C | 99% | 1008.2 hPa | 5.59 mm | - | - | - |
| 1777240705 | 11.67° C | 99% | 1008.4 hPa | 5.59 mm | - | - | - |
| 1777239982 | 11.67° C | 99% | 1008.3 hPa | 5.84 mm | - | - | - |
| 1777239261 | 11.11° C | 99% | 1008.7 hPa | 6.1 mm | - | - | - |
| 1777238541 | 11.67° C | 99% | 1008.7 hPa | 5.84 mm | - | - | - |
| 1777237822 | 11.67° C | 99% | 1008.9 hPa | 5.33 mm | - | - | - |
| 1777237102 | 11.67° C | 99% | 1009.2 hPa | 4.83 mm | - | - | - |
| 1777236382 | 11.67° C | 99% | 1009.3 hPa | 4.57 mm | - | - | - |
| 1777235660 | 11.67° C | 99% | 1009.1 hPa | 4.32 mm | - | - | - |
| 1777234939 | 11.67° C | 99% | 1009.4 hPa | 3.81 mm | - | - | - |
* Rain latest hour (hover to see other rain measurements)
** Current wind speed in m/s (hover to see current wind gust speed)